Home   Weather   Passaic   Past weeks

Flag for USA Past Weather in Passaic, New Jersey, USA — Yesterday and Last 2 Weeks

Now
69 °F

Partly sunny.


Feels Like: 69 °F
Forecast: 61 / 76 °F
Wind: 7 mph from West

Location: Teterboro Airport

Current Time: Sep 27, 2016 at 11:35:22 AM

Latest Report: Sep 27, 2016 at 10:51 AM


Visibility: 10 mi

Pressure: 29.94 "Hg

Humidity: 70%

Dew Point: 59 °F

Location of PassaicLocation

Past Weather in Passaic — Graph

°F

Passaic Temperature Yesterday

Maximum temperature yesterday: 72 °F (at 2:51 PM)
Minimum temperature yesterday: 49 °F (at 6:51 AM)
Average temperature yesterday: 63 °F

High & Low Weather Summary for the Past Weeks

 TemperatureHumidityPressure
High91 °F (Sep 14, 2:51 PM)94% (Sep 27, 5:01 AM)30.33 "Hg (Sep 27, 5:01 AM)
Low49 °F (Sep 26, 6:51 AM)9% (Sep 14, 12:51 PM)29.89 "Hg (Sep 27, 5:01 AM)
Average70 °F61%30.12 "Hg
* Reported Sep 12 9:51 AM — Sep 27 9:51 AM, Passaic, Weather by CustomWeather, © 2016

Note: Actual official high and low records may vary slightly from our data, if they occured in-between our weather recording intervals... More about our weather records

Advertising

Passaic Weather History for the Previous 24 Hours

Scroll right to see more
 ConditionsComfort  
Time TempWeatherWind HumidityBarometerVisibility
9:51 AM
Tue, Sep 27
67 °FSunny.5 mph79%29.93 "Hg10 mi
8:51 AM65 °FSunny.3 mph85%29.92 "Hg10 mi
7:51 AM65 °FPartly sunny.3 mph87%29.90 "Hg9 mi
6:51 AM65 °FLight rain. Fog.3 mph87%29.89 "Hg5 mi
5:51 AM65 °FLight rain. Fog.3 mph91%29.89 "Hg5 mi
5:01 AM65 °FLight rain. Fog.5 mph94%29.89 "Hg5 mi
3:51 AM65 °FRain. Fog.3 mph91%29.90 "Hg4 mi
3:01 AM65 °FRain. Fog.6 mph91%29.91 "Hg3 mi
1:51 AM69 °FMostly cloudy.8 mph73%29.92 "Hg10 mi
12:51 AM69 °FOvercast.10 mph70%29.93 "Hg10 mi
11:51 PM
Mon, Sep 26
68 °FMostly cloudy.8 mph68%29.97 "Hg10 mi
11:04 PM68 °FOvercast.9 mph65%29.99 "Hg10 mi
10:51 PM68 °FMostly cloudy.9 mph63%30.00 "Hg10 mi
9:51 PM68 °FOvercast.10 mph59%30.03 "Hg10 mi
8:51 PM68 °FOvercast.12 mph55%30.04 "Hg10 mi
7:51 PM68 °FOvercast.12 mph49%30.04 "Hg10 mi
6:51 PM68 °FOvercast.10 mph49%30.04 "Hg10 mi
5:51 PM69 °FOvercast.10 mph47%30.05 "Hg10 mi
4:51 PM71 °FSunny.13 mph45%30.04 "Hg10 mi
3:51 PM72 °FSunny.14 mph44%30.06 "Hg10 mi
2:51 PM72 °FPassing clouds.8 mph43%30.08 "Hg10 mi
1:51 PM71 °FScattered clouds.8 mph44%30.10 "Hg10 mi
12:51 PM71 °FPassing clouds.14 mph42%30.13 "Hg10 mi
11:51 AM69 °FSunny.12 mph42%30.15 "Hg10 mi
Weather by CustomWeather, © 2016

See weather overviewHow to use our weather pages